K3ZED-2 Weather Reports


Display with metric or nautical units.
time (UTC)temp
F
wind
direction
speed
MPH
gust
MPH
rain 1hr
in
rain 24hr
in
rain mn
in
humidity
%
barometer
mb
20211208154651 35 33 0.0 0.0 0.00 0.00 0.00 64 1017.1
20211208153200 35 33 0.0 0.0 0.00 0.00 0.00 65 1017.3
20211208151606 35 49 0.0 0.0 0.00 0.00 0.00 65 1017.6
20211208150059 35 59 0.0 0.0 0.00 0.00 0.00 67 1017.9
20211208144551 34 55 0.0 0.0 0.00 0.00 0.00 67 1018.1
20211208143122 34 69 0.0 2.0 0.00 0.00 0.00 67 1018.2
20211208141608 34 65 0.0 0.0 0.00 0.00 0.00 67 1018.4
20211208140110 33 73 0.0 2.0 0.00 0.00 0.00 69 1018.5
20211208134542 33 75 0.0 0.0 0.00 0.00 0.00 73 1018.6
20211208133033 32 70 0.0 0.0 0.00 0.00 0.00 75 1018.7
20211208131625 32 70 0.0 0.0 0.00 0.00 0.00 75 1018.8
20211208130057 32 70 0.0 0.0 0.00 0.00 0.00 77 1018.9
20211208124551 31 70 0.0 0.0 0.00 0.00 0.00 75 1018.8
20211208123106 31 70 0.0 0.0 0.00 0.00 0.00 73 1018.7
20211208121519 31 70 0.0 0.0 0.00 0.00 0.00 73 1018.9
20211208120033 31 70 0.0 0.0 0.00 0.00 0.00 73 1018.9
20211208114521 31 65 0.0 0.0 0.00 0.00 0.00 75 1018.8
20211208113017 31 64 0.0 0.0 0.00 0.00 0.00 74 1018.7
20211208111551 31 69 0.0 0.0 0.00 0.00 0.00 76 1019.0
20211208110013 31 70 0.0 0.0 0.00 0.00 0.00 76 1019.0
20211208104548 30 44 0.0 0.0 0.00 0.00 0.00 80 1019.2
20211208103012 30 44 0.0 0.0 0.00 0.00 0.00 80 1019.3
20211208101517 30 44 0.0 0.0 0.00 0.00 0.00 80 1019.4
20211208100015 30 44 0.0 0.0 0.00 0.00 0.00 81 1019.5
20211208094508 30 44 0.0 0.0 0.00 0.00 0.00 81 1019.5
20211208093016 30 44 0.0 0.0 0.00 0.00 0.00 81 1019.5
20211208091507 30 44 0.0 0.0 0.00 0.00 0.00 79 1019.3
20211208090014 30 44 0.0 0.0 0.00 0.00 0.00 77 1019.3
20211208084503 30 44 0.0 0.0 0.00 0.00 0.00 78 1019.6
20211208083002 30 39 0.0 0.0 0.00 0.00 0.00 79 1019.7
20211208081641 30 320 0.0 0.0 0.00 0.00 0.00 80 1019.9
20211208080102 30 320 0.0 0.0 0.00 0.00 0.00 81 1020.3
20211208074609 30 320 0.0 0.0 0.00 0.00 0.00 82 1020.8
20211208073252 29 320 0.0 0.0 0.00 0.00 0.00 81 1020.6
20211208071642 29 320 0.0 0.0 0.00 0.00 0.00 80 1020.6
20211208070132 29 320 0.0 0.0 0.00 0.00 0.00 82 1020.3
20211208064615 29 320 0.0 0.0 0.00 0.00 0.00 82 1020.3
20211208063135 30 320 0.0 0.0 0.00 0.00 0.00 81 1020.5
20211208061627 30 320 0.0 0.0 0.00 0.00 0.00 80 1020.4
20211208060118 30 320 0.0 0.0 0.00 0.00 0.00 80 1020.4
20211208054627 30 320 0.0 0.0 0.00 0.00 0.00 80 1020.6
20211208053117 30 320 0.0 0.0 0.00 0.00 0.00 80 1020.9
20211208051634 30 320 0.0 0.0 0.00 0.00 0.00 79 1021.1
20211208050046 30 320 0.0 0.0 0.00 0.00 0.00 79 1021.5
20211208044557 30 320 0.0 0.0 0.00 0.00 0.00 79 1021.8
20211208043146 30 320 0.0 0.0 0.00 0.00 0.00 79 1021.9
20211208041558 30 320 0.0 0.0 0.00 0.00 0.00 79 1022.0
20211208040042 30 320 0.0 0.0 0.00 0.00 0.00 79 1022.1
20211208034628 30 320 0.0 0.0 0.00 0.00 0.00 79 1022.2
20211208033152 30 320 0.0 0.0 0.00 0.00 0.00 79 1022.4
20211208031552 30 320 0.0 0.0 0.00 0.00 0.00 79 1022.5
20211208030035 30 320 0.0 0.0 0.00 0.00 0.00 79 1022.1
20211208024545 30 320 0.0 0.0 0.00 0.00 0.00 78 1022.1
20211208023040 30 320 0.0 0.0 0.00 0.00 0.00 76 1022.2
20211208021606 30 320 0.0 0.0 0.00 0.00 0.00 74 1022.1
20211208020113 31 320 0.0 0.0 0.00 0.00 0.00 77 1022.4
20211208014604 31 320 0.0 0.0 0.00 0.00 0.00 77 1022.6
20211208013053 32 320 0.0 0.0 0.00 0.00 0.00 77 1022.7
20211208011638 32 320 0.0 0.0 0.00 0.00 0.00 76 1022.9
20211208010029 32 320 0.0 0.0 0.00 0.00 0.00 75 1022.7
20211208004540 32 320 0.0 0.0 0.00 0.13 0.00 76 1022.8
20211208003034 32 320 0.0 0.0 0.00 0.13 0.00 70 1022.8
20211208001604 32 320 0.0 0.0 0.00 0.13 0.00 71 1022.8
20211208000115 33 320 0.0 0.0 0.00 0.13 0.00 70 1022.7
20211207234527 33 320 0.0 0.0 0.00 0.13 0.00 68 1022.7
20211207233041 34 320 0.0 0.0 0.00 0.13 0.00 68 1022.6
20211207231532 34 320 0.0 0.0 0.00 0.13 0.00 63 1022.4
20211207230041 33 319 0.0 0.0 0.00 0.13 0.00 63 1022.7
20211207224557 33 320 0.0 0.0 0.00 0.13 0.00 63 1022.6
20211207223035 33 322 0.0 0.0 0.00 0.13 0.00 66 1022.4
20211207221610 34 326 0.0 0.0 0.00 0.13 0.00 61 1022.2
20211207220031 34 328 0.0 0.0 0.00 0.13 0.00 59 1022.2
20211207214547 35 327 0.0 0.0 0.00 0.13 0.00 58 1022.2
20211207213047 36 324 0.0 3.0 0.00 0.13 0.00 58 1022.0
20211207211530 37 295 0.0 2.0 0.00 0.13 0.00 57 1022.5
20211207210051 37 307 0.0 0.0 0.00 0.13 0.00 55 1022.3
20211207204610 38 288 0.0 2.0 0.00 0.13 0.00 54 1022.4
20211207203022 38 251 0.0 2.0 0.00 0.13 0.00 55 1022.1
20211207201529 38 277 0.0 9.0 0.00 0.13 0.00 55 1022.2
20211207200028 38 287 0.0 8.0 0.00 0.13 0.00 53 1022.0
20211207194521 38 304 0.0 8.0 0.00 0.13 0.00 56 1022.1
20211207193037 38 301 0.0 9.0 0.00 0.13 0.00 56 1022.0
20211207191529 37 303 0.0 9.0 0.00 0.13 0.00 55 1021.9
20211207190022 37 296 3.0 10.0 0.00 0.13 0.00 56 1021.7
20211207184631 38 302 2.0 10.0 0.00 0.13 0.00 55 1021.9
20211207183020 37 29 1.0 13.0 0.00 0.13 0.00 56 1022.2
20211207180213 38 289 0.0 13.0 0.00 0.13 0.00 57 1022.7
20211207174656 38 280 0.0 12.0 0.00 0.13 0.00 57 1022.7
20211207173142 39 297 4.0 11.0 0.00 0.13 0.00 55 1022.7
20211207171502 38 323 5.0 13.0 0.00 0.13 0.00 55 1022.6
20211207170211 39 268 2.0 13.0 0.00 0.13 0.00 57 1022.8
20211207164649 38 276 1.0 12.0 0.00 0.14 0.00 58 1022.6
20211207163124 37 330 0.0 13.0 0.00 0.14 0.00 59 1023.1
20211207161602 37 304 1.0 13.0 0.00 0.14 0.00 60 1023.7
20211207160125 36 265 2.0 13.0 0.00 0.14 0.00 60 1023.1